Regional Weather Roundup
Issued by NWS Cleveland, OH

Home | Current Version | Previous Version | Text Only | Print | Product List | Glossary Off
Versions: 1 2 3 4 5 6 7 8 9 10 11 12 13 14 15 16 17 18 19 20 21 22 23 24 25 26 27 28 29 30 31 32 33 34 35 36 37 38 39 40 41 42 43 44 45 46 47 48 49 50

000
ASUS41 KCLE 270810
RWRCLE
OHIO REGIONAL WEATHER ROUNDUP
NATIONAL WEATHER SERVICE CLEVELAND, OH
400 AM EDT FRI MAR 27 2015

NOTE: "FAIR" INDICATES FEW OR NO CLOUDS BELOW 12,000 FEET WITH NO
SIGNIFICANT WEATHER AND/OR OBSTRUCTIONS TO VISIBILITY.

OHZ001>008-015>018-024>027-034-035-043-044-270900-
   NORTHWEST OHIO

CITY           SKY/WX    TMP DP  RH WIND       PRES   REMARKS
DEFIANCE       CLOUDY    33  23  66 NW6       29.98R WCI  28
FINDLAY        CLOUDY    33  22  63 NW8       29.95S WCI  26
TOLEDO EXPRESS CLOUDY    32  18  56 NW10      29.96R WCI  24
TOLEDO EXEC    CLOUDY    33  19  56 NW10      29.97R WCI  25
LIMA           CLOUDY    33  25  72 NW8       29.95F WCI  26
$$

OHZ009>014-019>023-028>033-038-089-270900-
   NORTHEAST OHIO

CITY           SKY/WX    TMP DP  RH WIND       PRES   REMARKS
CLE-HOPKINS    CLOUDY    34  26  72 NW7       29.93S WCI  28
CLE-LAKEFRONT  FLURRIES  33  29  85 NW12      29.91S WCI  24
CUY CO. ARPT   NOT AVBL
LORAIN-ELYRIA  CLOUDY    33  26  75 NW10      29.92F WCI  25
ASHTABULA      FLURRIES  32  28  85 NW10      29.89R WCI  24
AKRON-CANTON   CLOUDY    33  26  75 NW7       29.88F WCI  27
WOOSTER        CLOUDY    32  26  78 NW8       29.89F WCI  25
MANSFIELD      CLOUDY    31  23  72 NW10      29.89F WCI  22
YOUNGSTOWN     CLOUDY    33  31  92 NW7       29.85F FOG     WCI  27
$$

OHZ042-051>053-060>062-070>072-077>081-270900-
  SOUTHWEST OHIO

CITY           SKY/WX    TMP DP  RH WIND       PRES   REMARKS
CINC-COVINGTON PTCLDY    34  24  67 N8        29.96R WCI  27
CINC-LUNKEN    PTCLDY    34  23  64 N8        29.99R WCI  27
HAMILTON       CLEAR     32  24  72 NW5       29.98S WCI  27
DAYTON         PTCLDY    33  24  69 NW10      29.96F WCI  25
WRIGHT-PAT AFB PTCLDY    33  22  64 VRB7      29.95F WCI  27
DAYTON GENERAL CLEAR     33  22  63 N8        29.95F WCI  26
WILMINGTON     CLEAR     31  23  72 N5        29.94S WCI  26
$$

OHZ036-037-039>041-045>050-054>059-063>069-073>076-082>088-270900-
  CENTRAL AND SOUTHEAST OHIO

CITY           SKY/WX    TMP DP  RH WIND       PRES   REMARKS
COLUMBUS       CLEAR     30  23  75 NW6       29.94F WCI  24
OSU AIRPORT    CLEAR     29  22  75 NW6       29.94F WCI  23
BOLTON FIELD   CLEAR    N/A N/A N/A W3        29.95S
RICKENBACK AFB CLEAR     31  24  73 CALM      29.95R
NEWARK         PTCLDY    31  24  75 W6        29.93S WCI  25
MARION         CLOUDY    32  24  72 NW9       29.93F WCI  24
LANCASTER      CLEAR     32  23  69 CALM      29.94S
ZANESVILLE     PTCLDY    33  26  75 NW8       29.91S WCI  26
NEW PHILLY     CLOUDY    37  27  67 NW7       29.90F
$$



USA.gov is the U.S. government's official web portal to all federal, state and local government web resources and services.